Tracking 19250 objects as of 23-Sep-2018
HD Live streaming from Space Station
objects crossing your sky now

FENGYUN 1C DEB

Track FENGYUN 1C DEB now!
10-day predictions


NORAD ID: 32350
Int'l Code: 1999-025CYT
Perigee: 548.6 km
Apogee: 1,006.5 km
Inclination: 98.6 °
Period: 100.3 minutes
Semi major axis: 7148 km
RCS: 0.0139 m2 (small)
Launch date: May 10, 1999
Source: People's Republic of China (PRC)
Launch site: Taiyaun Space Center, China (TSC)

Note: This is SATELLITE DEBRIS
aabbcc
Your satellite tracking list
Your tracking list is empty




NASA's NSSDC Master Catalog

Two Line Element Set (TLE):
1 32350U 99025CYT 18265.36773304 +.00000185 +00000-0 +47423-4 0  9991
2 32350 098.5873 314.7712 0320276 319.6461 038.1351 14.36394568595470
Source of the keplerian elements: AFSPC